Weather History for Monett, MO

Change the Weather History Date:

Thursday, January 10, 2013

  Actual Average (KJLN) Record (KJLN)
Temperature  
Mean Temperature 46 °F 34 °F  
Max Temperature 50 °F 44 °F 69 °F (1990)
Min Temperature 42 °F 25 °F -10 °F (1982)
Degree Days  
Heating Degree Days 19 30  
Month to date heating degree days 300  
Since 1 July heating degree days 1917  
Cooling Degree Days 0 0  
Month to date cooling degree days 0  
Year to date cooling degree days 0  
Moisture  
Dew Point 44 °F    
Average Humidity 91    
Maximum Humidity 100    
Minimum Humidity 50    
Precipitation  
Precipitation 0.14 in 0.07 in 1.04 in (1949)
Month to date precipitation 0.70  
Year to date precipitation 0.70  
Sea Level Pressure  
Sea Level Pressure 29.95 in    
Wind  
Wind Speed 16 mph (SE)    
Max Wind Speed 25 mph    
Max Gust Speed 33 mph    
Visibility 9 miles    
Events Rain    
T = Trace of Precipitation, MM = Missing Value Source: NWS Daily Summary

Daily Weather History Graph

Daily Weather History Graph

Search for Another Location

Airport:

Trip Planner

Search our weather history database for the weather conditions in past years. The results will help you decide how hot, cold, wet, or windy it might be!

Date:

Astronomy

Jan. 10, 2013 Rise Set
Actual Time 7:29 AM CST 5:18 PM CST
Civil Twilight 7:00 AM CST 5:47 PM CST
Nautical Twilight 6:28 AM CST 6:19 PM CST
Astronomical Twilight 5:57 AM CST 6:50 PM CST
Moon 6:09 AM CST (1/10) 4:26 PM CST (1/10)
Length of Visible Light 10h 46m
Length of Day
9h 49m
Waning Crescent, 2% of the Moon is Illuminated
Jan 10
Waning Crescent
Jan 11
New
Jan 18
First Quarter
Jan 26
Full
Feb 3
Last Quarter

Hourly Weather History & Observations

Time (CST) Temp. Windchill Dew Point Humidity Pressure Visibility Wind Dir Wind Speed Gust Speed Precip Events Conditions
12:15 AM 50.0 °F - 32.0 °F 50% 30.23 in 10.0 mi East 17.3 mph 32.2 mph N/A   Overcast
2:15 AM 46.4 °F 39.5 °F 35.6 °F 66% 30.19 in 10.0 mi East 17.3 mph 29.9 mph N/A   Overcast
2:35 AM 44.6 °F 35.5 °F 35.6 °F 71% 30.18 in 10.0 mi East 25.3 mph 33.4 mph N/A   Overcast
2:55 AM 44.6 °F 37.4 °F 37.4 °F 76% 30.18 in 10.0 mi East 16.1 mph 28.8 mph N/A   Overcast
3:15 AM 42.8 °F 34.5 °F 37.4 °F 81% 30.17 in 10.0 mi East 18.4 mph 27.6 mph N/A   Overcast
3:55 AM 42.8 °F 34.5 °F 39.2 °F 87% 30.15 in 10.0 mi ESE 18.4 mph 24.2 mph N/A   Overcast
4:15 AM 42.8 °F 35.1 °F 39.2 °F 87% 30.12 in 10.0 mi East 16.1 mph 25.3 mph N/A   Overcast
4:35 AM 42.8 °F 35.8 °F 39.2 °F 87% 30.11 in 10.0 mi East 13.8 mph 24.2 mph N/A   Overcast
4:55 AM 42.8 °F 33.8 °F 39.2 °F 87% 30.10 in 10.0 mi East 21.9 mph 26.5 mph N/A   Overcast
5:15 AM 42.8 °F 34.8 °F 41.0 °F 93% 30.10 in 10.0 mi ESE 17.3 mph 23.0 mph N/A   Overcast
5:35 AM 42.8 °F 34.5 °F 41.0 °F 93% 30.09 in 10.0 mi ESE 18.4 mph 24.2 mph N/A   Overcast
5:55 AM 42.8 °F 34.8 °F 41.0 °F 93% 30.08 in 10.0 mi ESE 17.3 mph 26.5 mph N/A   Overcast
6:15 AM 42.8 °F 34.5 °F 41.0 °F 93% 30.08 in 10.0 mi ESE 18.4 mph 27.6 mph N/A   Overcast
6:55 AM 42.8 °F 33.5 °F 41.0 °F 93% 30.05 in 10.0 mi ESE 23.0 mph 31.1 mph N/A   Overcast
7:15 AM 42.8 °F 34.5 °F 41.0 °F 93% 30.06 in 10.0 mi ESE 18.4 mph 26.5 mph N/A   Overcast
7:35 AM 42.8 °F 34.8 °F 41.0 °F 93% 30.05 in 10.0 mi ESE 17.3 mph 27.6 mph N/A   Overcast
7:55 AM 42.8 °F 34.3 °F 41.0 °F 93% 30.05 in 10.0 mi ESE 19.6 mph 28.8 mph N/A   Overcast
8:15 AM 42.8 °F 34.8 °F 41.0 °F 93% 30.04 in 7.0 mi ESE 17.3 mph 25.3 mph N/A   Overcast
8:35 AM 42.8 °F 34.3 °F 42.8 °F 100% 30.05 in 5.0 mi ESE 19.6 mph 26.5 mph N/A   Overcast
8:55 AM 42.8 °F 35.1 °F 42.8 °F 100% 30.05 in 7.0 mi SE 16.1 mph - N/A   Overcast
9:15 AM 42.8 °F 34.5 °F 42.8 °F 100% 30.04 in 7.0 mi ESE 18.4 mph 23.0 mph N/A   Overcast
9:55 AM 44.6 °F 36.4 °F 42.8 °F 93% 30.00 in 10.0 mi ESE 20.7 mph 27.6 mph N/A   Overcast
10:35 AM 44.6 °F 36.6 °F 44.6 °F 100% 30.00 in 10.0 mi ESE 19.6 mph 25.3 mph N/A   Overcast
10:55 AM 46.4 °F 38.5 °F 44.6 °F 93% 29.96 in 10.0 mi ESE 21.9 mph 26.5 mph N/A   Overcast
11:15 AM 46.4 °F 39.5 °F 44.6 °F 93% 29.97 in 10.0 mi ESE 17.3 mph 23.0 mph N/A   Overcast
11:35 AM 46.4 °F 40.1 °F 44.6 °F 93% 29.95 in 10.0 mi ESE 15.0 mph 21.9 mph N/A   Overcast
11:55 AM 46.4 °F 39.5 °F 44.6 °F 93% 29.92 in 10.0 mi ESE 17.3 mph - N/A   Overcast
12:15 PM 48.2 °F - 46.4 °F 93% 29.91 in 10.0 mi ESE 16.1 mph 24.2 mph N/A   Overcast
12:35 PM 50.0 °F - 46.4 °F 87% 29.90 in 10.0 mi SE 19.6 mph 23.0 mph N/A   Overcast
12:55 PM 50.0 °F - 46.4 °F 87% 29.89 in 10.0 mi SE 16.1 mph 23.0 mph N/A   Overcast
1:15 PM 50.0 °F - 46.4 °F 87% 29.88 in 10.0 mi ESE 15.0 mph 20.7 mph N/A   Overcast
1:35 PM 50.0 °F - 46.4 °F 87% 29.87 in 10.0 mi ESE 15.0 mph 23.0 mph N/A   Overcast
1:55 PM 50.0 °F - 46.4 °F 87% 29.86 in 10.0 mi ESE 12.7 mph - N/A   Overcast
2:15 PM 50.0 °F - 46.4 °F 87% 29.85 in 5.0 mi ESE 12.7 mph - N/A Rain Rain
2:35 PM 50.0 °F - 48.2 °F 94% 29.84 in 5.0 mi ESE 12.7 mph - N/A   Light Drizzle
2:55 PM 50.0 °F - 50.0 °F 100% 29.82 in 7.0 mi ESE 13.8 mph 19.6 mph N/A   Overcast
3:15 PM 50.0 °F - 50.0 °F 100% 29.83 in 7.0 mi ESE 11.5 mph - N/A Rain Rain
3:35 PM 50.0 °F - 50.0 °F 100% 29.82 in 10.0 mi ESE 11.5 mph - N/A   Overcast
3:55 PM 50.0 °F - 50.0 °F 100% 29.82 in 10.0 mi ESE 12.7 mph - N/A   Overcast
4:15 PM 50.0 °F - 50.0 °F 100% 29.82 in 7.0 mi ESE 10.4 mph 16.1 mph N/A Rain Rain
4:35 PM 50.0 °F - 48.2 °F 94% 29.82 in 7.0 mi ESE 11.5 mph - 0.02 in Rain Light Rain
4:55 PM 50.0 °F - 48.2 °F 94% 29.86 in 7.0 mi SW 10.4 mph 17.3 mph 0.03 in Rain Rain
5:15 PM 50.0 °F - 50.0 °F 100% 29.86 in 5.0 mi Calm Calm - 0.04 in Rain Rain
5:35 PM 50.0 °F - 48.2 °F 94% 29.85 in 5.0 mi Calm Calm - 0.08 in Rain Rain
5:55 PM 50.0 °F - 48.2 °F 94% 29.85 in 5.0 mi ESE 4.6 mph - 0.10 in Rain Light Rain
6:15 PM 48.2 °F - 48.2 °F 100% 29.84 in 7.0 mi ESE 5.8 mph - N/A   Light Drizzle
6:35 PM 48.2 °F - 48.2 °F 100% 29.84 in 10.0 mi East 4.6 mph - N/A   Overcast
6:55 PM 48.2 °F - 48.2 °F 100% 29.84 in 10.0 mi ESE 8.1 mph - N/A   Overcast
7:15 PM 48.2 °F - 48.2 °F 100% 29.84 in 10.0 mi ESE 6.9 mph - 0.01 in   Overcast
7:35 PM 46.4 °F 43.5 °F 46.4 °F 100% 29.83 in 10.0 mi ESE 5.8 mph - 0.01 in   Mostly Cloudy
7:55 PM 46.4 °F 42.9 °F 46.4 °F 100% 29.82 in 7.0 mi SSE 6.9 mph - 0.01 in   Scattered Clouds
8:35 PM 48.2 °F - 46.4 °F 93% 29.83 in 10.0 mi SSE 9.2 mph - N/A   Scattered Clouds
8:55 PM 50.0 °F - 48.2 °F 94% 29.83 in 10.0 mi South 11.5 mph - N/A   Mostly Cloudy
9:15 PM 50.0 °F - 46.4 °F 87% 29.84 in 10.0 mi SSW 15.0 mph 19.6 mph N/A   Overcast
9:35 PM 50.0 °F - 46.4 °F 87% 29.85 in 10.0 mi SSW 12.7 mph 19.6 mph N/A   Overcast
9:55 PM 50.0 °F - 46.4 °F 87% 29.85 in 10.0 mi SSW 12.7 mph - N/A   Overcast
10:15 PM 50.0 °F - 46.4 °F 87% 29.84 in 10.0 mi SSW 15.0 mph - N/A   Overcast
10:35 PM 50.0 °F - 46.4 °F 87% 29.84 in 10.0 mi SSW 13.8 mph 23.0 mph N/A   Overcast
11:35 PM 48.2 °F - 46.4 °F 93% 29.84 in 10.0 mi SSW 13.8 mph - N/A   Overcast
11:55 PM 48.2 °F - 46.4 °F 93% 29.83 in 10.0 mi SSW 13.8 mph 23.0 mph N/A   Overcast